Location: Clermont
(50.2608°N, 4.3172°E)
Time: 16:11:43
(UTC+00:00)

Okean 2 Rocket - Pass Details

Date: 13 August 2020
Orbit: 617 x 641 km, 82.5° (Epoch: 18 September)

Event Time Altitude Azimuth Distance (km) Brightness Sun altitude
Exits shadow 23:50:15 62° 68° (ENE) 724 3.4 -25.5°
Drops below altitude 10° 23:54:23 10° 15° (NNE) 2,043 6.7 -25.4°
Sets 23:56:39 0° 13° (NNE) 2,959 7.8 -25.4°
